Weather History for KHPN - August, 2011

Change the Weather History Date:

Tuesday, August 2, 2011

  Actual Average Record
Temperature  
Mean Temperature 76 °F -  
Max Temperature 87 °F 80 °F 98 °F (1975)
Min Temperature 66 °F 63 °F 56 °F (1992)
Cooling Degree Days 11    
Growing Degree Days 26 (Base 50)    
Moisture  
Dew Point 62 °F    
Average Humidity 64    
Maximum Humidity 97    
Minimum Humidity 37    
Precipitation  
Precipitation 0.17 in - - ()
Sea Level Pressure  
Sea Level Pressure 29.72 in    
Wind  
Wind Speed 6 mph (WNW)    
Max Wind Speed 14 mph    
Max Gust Speed 17 mph    
Visibility 9 miles    
Events      
Averages and records for this station are not official NWS values.
T = Trace of Precipitation, MM = Missing Value Source: NWS Daily Summary

Daily Weather History Graph

Daily Weather History Graph

Search for Another Location

Airport or City:

Trip Planner

Search our weather history database for the weather conditions in past years. The results will help you decide how hot, cold, wet, or windy it might be!

Date:

Astronomy

Aug. 02, 2011 Rise Set
Actual Time 5:51 AM EDT 8:10 PM EDT
Civil Twilight 5:20 AM EDT 8:41 PM EDT
Nautical Twilight 4:42 AM EDT 9:19 PM EDT
Astronomical Twilight 4:00 AM EDT 10:00 PM EDT
Moon 9:17 AM EDT (8/2) 9:33 PM EDT (8/2)
Length of Visible Light 15h 20m
Length of Day
14h 18m
Waxing Crescent, 11% of the Moon is Illuminated
Aug 2
Waxing Crescent
Aug 6
First Quarter
Aug 13
Full
Aug 21
Last Quarter
Aug 28
New

Hourly Weather History & Observations

Time (EDT) Temp. Heat Index Dew Point Humidity Pressure Visibility Wind Dir Wind Speed Gust Speed Precip Events Conditions
12:56 AM 70.0 °F - 66.9 °F 90% 29.77 in 10.0 mi West 4.6 mph - 0.03 in   Scattered Clouds
1:56 AM 69.1 °F - 66.0 °F 90% 29.74 in 10.0 mi West 4.6 mph - 0.02 in   Clear
2:56 AM 70.0 °F - 66.0 °F 87% 29.73 in 10.0 mi WNW 4.6 mph - 0.02 in   Clear
3:56 AM 66.9 °F - 66.0 °F 97% 29.73 in 7.0 mi NW 3.5 mph - 0.02 in   Partly Cloudy
4:56 AM 66.0 °F - 64.0 °F 93% 29.74 in 4.0 mi Calm Calm - 0.01 in   Clear
5:56 AM 66.9 °F - 64.9 °F 93% 29.75 in 7.0 mi Calm Calm - 0.01 in   Mostly Cloudy
6:56 AM 69.1 °F - 66.0 °F 90% 29.75 in 10.0 mi WNW 5.8 mph - 0.01 in   Clear
7:56 AM 72.0 °F - 64.0 °F 76% 29.75 in 10.0 mi NW 8.1 mph - 0.01 in   Clear
8:56 AM 73.9 °F - 64.0 °F 71% 29.76 in 10.0 mi WNW 10.4 mph - 0.01 in   Clear
9:56 AM 77.0 °F - 64.0 °F 64% 29.76 in 10.0 mi NW 10.4 mph - 0.01 in   Clear
10:56 AM 79.0 °F - 64.0 °F 60% 29.75 in 10.0 mi WNW 9.2 mph - 0.01 in   Clear
11:56 AM 80.6 °F 81.8 °F 62.6 °F 54% 29.76 in 10.0 mi West 9.2 mph - N/A   Clear
12:56 PM 84.2 °F 83.8 °F 59.0 °F 42% 29.75 in 9.0 mi WNW 11.5 mph - N/A   Clear
1:56 PM 84.9 °F 84.4 °F 59.0 °F 41% 29.71 in 8.0 mi WNW 12.7 mph - N/A   Partly Cloudy
2:56 PM 86.0 °F 85.7 °F 60.1 °F 41% 29.69 in 10.0 mi WNW 13.8 mph 17.3 mph 0.01 in   Scattered Clouds
3:56 PM 86.0 °F 84.9 °F 57.0 °F 37% 29.68 in 8.0 mi WNW 13.8 mph - N/A   Scattered Clouds
4:56 PM 86.0 °F 85.4 °F 59.0 °F 40% 29.67 in 10.0 mi WNW 8.1 mph - N/A   Scattered Clouds
5:56 PM 84.9 °F 83.9 °F 57.0 °F 38% 29.67 in 10.0 mi WNW 13.8 mph - N/A   Scattered Clouds
6:56 PM 84.0 °F 83.3 °F 57.0 °F 40% 29.68 in 10.0 mi WNW 10.4 mph - N/A   Scattered Clouds
7:56 PM 78.1 °F - 60.1 °F 54% 29.68 in 10.0 mi Variable 3.5 mph - N/A   Partly Cloudy
8:56 PM 77.0 °F - 59.0 °F 54% 29.69 in 10.0 mi WNW 5.8 mph - N/A   Clear
9:56 PM 72.0 °F - 61.0 °F 68% 29.70 in 10.0 mi Calm Calm - N/A   Clear
10:56 PM 70.0 °F - 60.1 °F 71% 29.71 in 10.0 mi Calm Calm - N/A   Clear
11:56 PM 71.1 °F - 55.0 °F 57% 29.72 in 10.0 mi Calm Calm - N/A   Clear